Location: Zapote
(9.9191°N, 84.0597°W)
Time: 03:22:54
(UTC-06:00)

Vanguard 2 - All Passes

Search period start: 01 March 2021 00:00
Search period end: 11 March 2021 00:00
Orbit: 552 x 2938 km, 32.9° (Epoch: 28 February)

Date Brightness Start Highest point End Pass type
(mag) Time Alt. Az. Time Alt. Az. Time Alt. Az.
01 Mar - 01:14:17 10° SW 01:24:30 90° SE 01:40:55 10° ENE visible
01 Mar - 03:24:55 10° W 03:37:47 45° NNW 03:54:31 10° NE visible
01 Mar - 05:39:49 10° WNW 05:54:15 31° N 06:08:39 10° NE daylight
01 Mar - 07:55:32 10° NW 08:11:09 36° NNE 08:23:16 10° ENE daylight
01 Mar - 10:09:31 10° NW 10:25:12 66° NNE 10:34:51 10° ESE daylight
01 Mar - 12:24:11 10° WNW 12:35:20 41° SW 12:42:16 10° SSE daylight
01 Mar - 23:24:54 10° SSW 23:32:20 39° SE 23:44:01 10° ENE visible
02 Mar - 01:32:12 10° WSW 01:42:35 72° NNW 01:59:04 10° NE visible
02 Mar - 03:43:49 10° W 03:56:41 39° NNW 04:12:46 10° NE visible
02 Mar - 05:59:00 10° NW 06:13:37 31° N 06:27:42 10° ENE daylight
02 Mar - 08:13:52 10° NW 08:30:06 42° NNE 08:42:11 10° E daylight
02 Mar - 10:27:38 10° NW 10:43:20 84° NNE 10:52:50 10° ESE daylight
02 Mar - 12:43:25 10° W 12:52:46 28° SW 12:59:06 10° SSE daylight
02 Mar - 23:42:02 10° SW 23:49:51 55° SE 00:02:52 10° ENE visible
03 Mar - 01:50:22 10° WSW 02:00:53 58° NNW 02:17:08 10° NE visible
03 Mar - 04:02:54 10° WNW 04:15:45 34° N 04:31:15 10° NE visible
03 Mar - 06:17:57 10° NW 06:32:56 32° N 06:46:54 10° ENE daylight
03 Mar - 08:32:02 10° NW 08:48:50 50° NNE 09:00:53 10° E daylight
03 Mar - 10:45:53 10° WNW 11:01:15 76° SW 11:10:33 10° SE daylight
03 Mar - 13:03:31 10° W 13:10:13 18° SW 13:15:19 10° S daylight
03 Mar - 21:55:11 10° SSE 21:59:05 15° SE 22:04:00 10° E night (unlit)
03 Mar - 23:59:29 10° SW 00:07:32 76° SE 00:21:20 10° ENE visible
04 Mar - 02:08:48 10° W 02:19:26 47° NNW 02:35:12 10° NE visible
04 Mar - 04:22:02 10° WNW 04:35:00 32° N 04:50:01 10° NE visible
04 Mar - 06:36:35 10° NW 06:52:10 35° NNE 07:06:10 10° ENE daylight
04 Mar - 08:50:05 10° NW 09:07:22 61° NNE 09:19:21 10° ESE daylight
04 Mar - 11:04:23 10° WNW 11:18:57 57° SW 11:27:59 10° SE daylight
04 Mar - 13:26:20 10° SW 13:27:48 10° SW 13:29:10 10° SW daylight
04 Mar - 22:11:10 10° S 22:16:30 25° SE 22:24:12 10° E night (unlit)
05 Mar - 00:17:11 10° WSW 00:25:26 81° NNW 00:39:33 10° NE visible
05 Mar - 02:27:29 10° W 02:38:10 39° NNW 02:53:23 10° NE visible
05 Mar - 04:41:06 10° NW 04:54:18 31° N 05:09:06 10° ENE visible
05 Mar - 06:54:57 10° NW 07:11:13 40° NNE 07:25:20 10° E daylight
05 Mar - 09:08:08 10° NW 09:25:41 75° NNE 09:37:30 10° ESE daylight
05 Mar - 11:23:15 10° WNW 11:36:31 41° SW 11:45:07 10° SSE daylight
05 Mar - 22:27:57 10° SSW 22:33:55 39° SE 22:43:24 10° ENE night (unlit)
06 Mar - 00:35:11 10° WSW 00:43:34 62° NNW 00:57:38 10° NE visible
06 Mar - 02:46:21 10° WNW 02:57:06 34° N 03:11:46 10° NE visible
06 Mar - 04:59:58 10° NW 05:13:37 31° N 05:28:26 10° ENE visible
06 Mar - 07:13:06 10° NW 07:30:04 47° NNE 07:44:17 10° E daylight
06 Mar - 09:26:17 10° WNW 09:43:46 88° SW 09:55:25 10° SE daylight
06 Mar - 11:42:40 10° W 11:54:02 29° SW 12:01:55 10° SSE daylight
06 Mar - 22:45:09 10° SW 22:51:26 59° SE 23:02:04 10° ENE night (unlit)
07 Mar - 00:53:25 10° W 01:01:55 48° NNW 01:15:38 10° NE visible
07 Mar - 03:05:19 10° WNW 03:16:11 30° N 03:30:26 10° NE visible
07 Mar - 05:18:35 10° NW 05:32:52 34° NNE 05:47:55 10° ENE visible
07 Mar - 07:31:09 10° NW 07:48:44 56° NNE 08:02:59 10° ESE daylight
07 Mar - 09:44:35 10° WNW 10:01:40 70° SW 10:13:03 10° SE daylight
07 Mar - 12:02:56 10° W 12:11:36 20° SW 12:18:11 10° S daylight
07 Mar - 20:58:27 10° SSE 21:01:11 14° SE 21:04:25 10° ESE night (unlit)
07 Mar - 23:02:40 10° SW 23:09:08 86° SE 23:20:22 10° ENE night (unlit)
08 Mar - 01:11:56 10° W 01:20:29 38° NNW 01:33:42 10° NE visible
08 Mar - 03:24:16 10° NW 03:35:22 29° N 03:49:28 10° NE visible
08 Mar - 05:36:56 10° NW 05:51:58 37° NNE 06:07:21 10° E daylight
08 Mar - 07:49:08 10° NW 08:07:10 68° NNE 08:21:24 10° ESE daylight
08 Mar - 10:03:11 10° WNW 10:19:24 54° SW 10:30:26 10° SE daylight
08 Mar - 12:25:02 10° WSW 12:29:19 12° SW 12:33:03 10° SSW daylight
08 Mar - 21:14:20 10° S 21:18:35 24° SE 21:24:29 10° E night (unlit)
08 Mar - 23:20:30 10° WSW 23:27:05 68° NNW 23:38:27 10° NE night (unlit)
09 Mar - 01:30:39 10° WNW 01:39:13 32° NNW 01:51:54 10° NE visible
09 Mar - 03:43:04 10° NW 03:54:36 29° N 04:08:50 10° ENE visible
09 Mar - 05:55:03 10° NW 06:10:53 43° NNE 06:26:37 10° E daylight
09 Mar - 08:07:10 10° NW 08:25:25 82° NNE 08:39:31 10° ESE daylight
09 Mar - 10:22:09 10° WNW 10:37:04 40° SW 10:47:32 10° SSE daylight
09 Mar - 21:31:11 10° SSW 21:36:01 40° SE 21:43:27 10° ENE night (unlit)
09 Mar - 23:38:36 10° W 23:45:15 49° NNW 23:56:24 10° NE visible
10 Mar - 01:49:30 10° WNW 01:58:08 28° N 02:10:21 10° NE visible
10 Mar - 04:01:38 10° NW 04:13:46 30° NNE 04:28:27 10° ENE visible
10 Mar - 06:13:03 10° NW 06:29:35 51° NNE 06:45:37 10° E daylight
10 Mar - 08:25:17 10° WNW 08:43:28 82° SW 08:57:22 10° SE daylight
10 Mar - 10:41:43 10° W 10:54:43 29° SW 11:04:18 10° SSE daylight
10 Mar - 21:48:28 10° SW 21:53:35 66° SE 22:01:54 10° ENE night (unlit)
